Time,TemperatureF,DewpointF,PressureIn,WindDirection,WindDirectionDegrees,WindSpeedMPH,WindSpeedGustMPH,Humidity,HourlyPrecipIn,Conditions,Clouds,dailyrainin,SolarRadiationWatts/m^2,SoftwareType,DateUTC
2013-05-14 00:00:00,58.7,50.0,30.07,West,273,0.0,0.0,74,0.00,,,0.00,0,weatherlink.com 1.10,2013-05-14 04:00:00,
2013-05-14 00:15:00,58.0,50.0,30.08,West,273,0.0,0.0,75,0.00,,,0.00,0,weatherlink.com 1.10,2013-05-14 04:15:00,
2013-05-14 00:30:00,57.5,50.0,30.08,West,273,0.0,0.0,77,0.00,,,0.00,0,weatherlink.com 1.10,2013-05-14 04:30:00,
2013-05-14 00:45:00,57.0,50.0,30.08,West,273,0.0,0.0,78,0.00,,,0.00,0,weatherlink.com 1.10,2013-05-14 04:45:00,
2013-05-14 01:00:00,56.6,50.0,30.09,West,273,0.0,0.0,79,0.00,,,0.00,0,weatherlink.com 1.10,2013-05-14 05:00:00,
2013-05-14 01:15:00,56.0,50.0,30.08,West,273,0.0,0.0,80,0.00,,,0.00,0,weatherlink.com 1.10,2013-05-14 05:15:00,
2013-05-14 01:30:00,55.4,49.0,30.08,West,273,0.0,0.0,80,0.00,,,0.00,0,weatherlink.com 1.10,2013-05-14 05:30:00,
2013-05-14 01:45:00,55.0,49.0,30.09,West,273,0.0,0.0,80,0.00,,,0.00,0,weatherlink.com 1.10,2013-05-14 05:45:00,
2013-05-14 02:00:00,54.4,48.0,30.09,West,273,0.0,0.0,80,0.00,,,0.00,0,weatherlink.com 1.10,2013-05-14 06:00:00,
2013-05-14 02:15:00,54.1,48.0,30.09,West,273,0.0,0.0,80,0.00,,,0.00,0,weatherlink.com 1.10,2013-05-14 06:15:00,
2013-05-14 02:30:00,53.6,48.0,30.09,West,273,0.0,0.0,80,0.00,,,0.00,0,weatherlink.com 1.10,2013-05-14 06:30:00,
2013-05-14 02:45:00,53.3,47.0,30.08,West,273,0.0,0.0,80,0.00,,,0.00,0,weatherlink.com 1.10,2013-05-14 06:45:00,
2013-05-14 03:00:00,52.9,47.0,30.09,West,273,0.0,0.0,80,0.00,,,0.00,0,weatherlink.com 1.10,2013-05-14 07:00:00,
2013-05-14 03:15:00,52.5,47.0,30.09,West,273,0.0,0.0,80,0.00,,,0.00,0,weatherlink.com 1.10,2013-05-14 07:15:00,
2013-05-14 03:30:00,52.0,46.0,30.09,West,273,0.0,0.0,81,0.00,,,0.00,0,weatherlink.com 1.10,2013-05-14 07:30:00,
2013-05-14 03:45:00,51.6,46.0,30.09,West,273,0.0,0.0,81,0.00,,,0.00,0,weatherlink.com 1.10,2013-05-14 07:45:00,
2013-05-14 04:00:00,51.3,46.0,30.09,West,273,0.0,0.0,82,0.00,,,0.00,0,weatherlink.com 1.10,2013-05-14 08:00:00,
2013-05-14 04:15:00,51.0,46.0,30.09,West,273,0.0,0.0,82,0.00,,,0.00,0,weatherlink.com 1.10,2013-05-14 08:15:00,
2013-05-14 04:30:00,50.7,46.0,30.09,West,273,0.0,0.0,83,0.00,,,0.00,0,weatherlink.com 1.10,2013-05-14 08:30:00,
2013-05-14 04:45:00,50.4,45.0,30.09,West,273,0.0,0.0,83,0.00,,,0.00,0,weatherlink.com 1.10,2013-05-14 08:45:00,
2013-05-14 05:00:00,50.2,46.0,30.09,West,273,0.0,0.0,84,0.00,,,0.00,0,weatherlink.com 1.10,2013-05-14 09:00:00,
2013-05-14 05:16:00,49.9,45.0,30.09,West,273,0.0,0.0,84,0.00,,,0.00,0,weatherlink.com 1.10,2013-05-14 09:16:00,
2013-05-14 05:31:00,49.8,45.0,30.09,West,273,0.0,0.0,84,0.00,,,0.00,0,weatherlink.com 1.10,2013-05-14 09:31:00,
2013-05-14 05:46:00,49.5,45.0,30.09,West,273,0.0,0.0,85,0.00,,,0.00,0,weatherlink.com 1.10,2013-05-14 09:46:00,
2013-05-14 06:01:00,49.4,45.0,30.10,West,273,0.0,0.0,85,0.00,,,0.00,0,weatherlink.com 1.10,2013-05-14 10:01:00,
2013-05-14 06:16:00,49.1,45.0,30.10,West,273,0.0,0.0,86,0.00,,,0.00,0,weatherlink.com 1.10,2013-05-14 10:16:00,
2013-05-14 06:31:00,48.9,45.0,30.10,West,273,0.0,0.0,86,0.00,,,0.00,0,weatherlink.com 1.10,2013-05-14 10:31:00,
2013-05-14 06:46:00,48.9,45.0,30.11,West,273,0.0,0.0,86,0.00,,,0.00,11,weatherlink.com 1.10,2013-05-14 10:46:00,
2013-05-14 07:01:00,49.1,45.0,30.12,West,273,0.0,0.0,86,0.00,,,0.00,19,weatherlink.com 1.10,2013-05-14 11:01:00,
2013-05-14 07:16:00,49.4,46.0,30.13,West,273,0.0,0.0,87,0.00,,,0.00,26,weatherlink.com 1.10,2013-05-14 11:16:00,
2013-05-14 07:31:00,50.2,47.0,30.13,West,273,0.0,0.0,87,0.00,,,0.00,130,weatherlink.com 1.10,2013-05-14 11:31:00,
2013-05-14 07:46:00,52.2,49.0,30.13,West,273,0.0,0.0,88,0.00,,,0.00,172,weatherlink.com 1.10,2013-05-14 11:46:00,
2013-05-14 08:01:00,54.5,49.0,30.13,West,273,0.0,0.0,83,0.00,,,0.00,225,weatherlink.com 1.10,2013-05-14 12:01:00,
2013-05-14 08:16:00,58.6,48.0,30.13,NW,323,0.0,1.0,69,0.00,,,0.00,283,weatherlink.com 1.10,2013-05-14 12:16:00,
2013-05-14 08:31:00,62.4,47.0,30.14,NE,38,0.0,7.0,58,0.00,,,0.00,336,weatherlink.com 1.10,2013-05-14 12:31:00,
2013-05-14 08:46:00,65.3,48.0,30.14,North,355,0.0,1.0,53,0.00,,,0.00,390,weatherlink.com 1.10,2013-05-14 12:46:00,
2013-05-14 09:01:00,67.1,45.0,30.14,NNW,346,0.0,2.0,46,0.00,,,0.00,445,weatherlink.com 1.10,2013-05-14 13:01:00,
2013-05-14 09:16:00,68.8,46.0,30.15,North,360,0.0,2.0,44,0.00,,,0.00,496,weatherlink.com 1.10,2013-05-14 13:16:00,
2013-05-14 09:31:00,70.4,43.0,30.15,NNW,348,1.0,5.0,38,0.00,,,0.00,545,weatherlink.com 1.10,2013-05-14 13:31:00,
2013-05-14 09:46:00,71.8,43.0,30.15,NNW,347,0.0,4.0,36,0.00,,,0.00,598,weatherlink.com 1.10,2013-05-14 13:46:00,
2013-05-14 10:02:00,73.0,41.0,30.15,NE,42,0.0,6.0,31,0.00,,,0.00,643,weatherlink.com 1.10,2013-05-14 14:02:00,
2013-05-14 10:17:00,73.9,38.0,30.15,NE,55,0.0,7.0,27,0.00,,,0.00,684,weatherlink.com 1.10,2013-05-14 14:17:00,
2013-05-14 10:32:00,74.4,38.0,30.16,NE,44,0.0,7.0,27,0.00,,,0.00,731,weatherlink.com 1.10,2013-05-14 14:32:00,
2013-05-14 10:47:00,75.1,37.0,30.16,NE,52,0.0,5.0,25,0.00,,,0.00,768,weatherlink.com 1.10,2013-05-14 14:47:00,
2013-05-14 11:02:00,75.8,38.0,30.17,ESE,111,3.0,3.0,25,0.00,,,0.00,803,weatherlink.com 1.10,2013-05-14 15:02:00,
2013-05-14 11:17:00,76.1,36.0,30.16,SE,127,0.0,7.0,23,0.00,,,0.00,838,weatherlink.com 1.10,2013-05-14 15:17:00,
2013-05-14 11:32:00,76.7,35.0,30.16,NNE,28,0.0,3.0,22,0.00,,,0.00,865,weatherlink.com 1.10,2013-05-14 15:32:00,
2013-05-14 11:47:00,77.7,39.0,30.16,ESE,117,0.0,1.0,25,0.00,,,0.00,893,weatherlink.com 1.10,2013-05-14 15:47:00,
2013-05-14 12:02:00,78.1,37.0,30.16,SE,130,0.0,5.0,23,0.00,,,0.00,918,weatherlink.com 1.10,2013-05-14 16:02:00,
2013-05-14 12:17:00,78.5,39.0,30.15,SE,145,3.0,3.0,24,0.00,,,0.00,932,weatherlink.com 1.10,2013-05-14 16:17:00,
2013-05-14 12:32:00,78.8,39.0,30.16,North,350,0.0,7.0,24,0.00,,,0.00,947,weatherlink.com 1.10,2013-05-14 16:32:00,
2013-05-14 12:47:00,79.0,43.0,30.15,South,171,1.0,3.0,28,0.00,,,0.00,951,weatherlink.com 1.10,2013-05-14 16:47:00,
2013-05-14 13:02:00,79.4,37.0,30.15,SSW,197,0.0,5.0,22,0.00,,,0.00,965,weatherlink.com 1.10,2013-05-14 17:02:00,
2013-05-14 13:17:00,80.3,45.0,30.15,WNW,287,2.0,3.0,29,0.00,,,0.00,970,weatherlink.com 1.10,2013-05-14 17:17:00,
2013-05-14 13:32:00,79.8,40.0,30.15,SW,229,0.0,8.0,24,0.00,,,0.00,972,weatherlink.com 1.10,2013-05-14 17:32:00,
2013-05-14 13:47:00,80.7,42.0,30.14,NNW,346,0.0,6.0,25,0.00,,,0.00,965,weatherlink.com 1.10,2013-05-14 17:47:00,
2013-05-14 14:02:00,81.2,43.0,30.14,SW,232,0.0,4.0,26,0.00,,,0.00,954,weatherlink.com 1.10,2013-05-14 18:02:00,
2013-05-14 14:17:00,81.1,42.0,30.13,SW,232,1.0,6.0,25,0.00,,,0.00,946,weatherlink.com 1.10,2013-05-14 18:17:00,
2013-05-14 14:32:00,81.2,42.0,30.13,WSW,253,0.0,6.0,25,0.00,,,0.00,928,weatherlink.com 1.10,2013-05-14 18:32:00,
2013-05-14 14:47:00,82.2,40.0,30.12,WSW,247,0.0,3.0,22,0.00,,,0.00,912,weatherlink.com 1.10,2013-05-14 18:47:00,
2013-05-14 15:02:00,82.2,43.0,30.12,West,276,0.0,9.0,25,0.00,,,0.00,884,weatherlink.com 1.10,2013-05-14 19:02:00,
2013-05-14 15:17:00,82.4,41.0,30.12,North,349,0.0,3.0,23,0.00,,,0.00,856,weatherlink.com 1.10,2013-05-14 19:17:00,
2013-05-14 15:32:00,82.6,39.0,30.11,NNW,338,1.0,6.0,21,0.00,,,0.00,828,weatherlink.com 1.10,2013-05-14 19:32:00,
2013-05-14 15:47:00,82.4,39.0,30.10,NNE,32,1.0,3.0,21,0.00,,,0.00,795,weatherlink.com 1.10,2013-05-14 19:47:00,
2013-05-14 16:02:00,82.2,40.0,30.10,WNW,292,0.0,1.0,22,0.00,,,0.00,758,weatherlink.com 1.10,2013-05-14 20:02:00,
2013-05-14 16:17:00,82.2,37.0,30.10,NNW,348,0.0,5.0,20,0.00,,,0.00,715,weatherlink.com 1.10,2013-05-14 20:17:00,
2013-05-14 16:32:00,81.1,45.0,30.10,ESE,115,0.0,5.0,28,0.00,,,0.00,671,weatherlink.com 1.10,2013-05-14 20:32:00,
2013-05-14 16:47:00,80.3,46.0,30.10,ESE,107,2.0,4.0,30,0.00,,,0.00,624,weatherlink.com 1.10,2013-05-14 20:47:00,
2013-05-14 17:17:00,79.6,47.0,30.09,ESE,111,2.0,8.0,32,0.00,,,0.00,527,weatherlink.com 1.10,2013-05-14 21:17:00,
2013-05-14 17:32:00,77.9,47.0,30.10,ESE,102,2.0,8.0,33,0.00,,,0.00,478,weatherlink.com 1.10,2013-05-14 21:32:00,
2013-05-14 17:47:00,77.2,47.0,30.09,ESE,113,0.0,5.0,35,0.00,,,0.00,427,weatherlink.com 1.10,2013-05-14 21:47:00,
2013-05-14 18:03:00,76.7,47.0,30.09,ESE,107,0.0,6.0,35,0.00,,,0.00,380,weatherlink.com 1.10,2013-05-14 22:03:00,
2013-05-14 18:18:00,76.3,47.0,30.09,ESE,108,0.0,7.0,35,0.00,,,0.00,325,weatherlink.com 1.10,2013-05-14 22:18:00,
2013-05-14 18:33:00,75.4,47.0,30.09,ESE,115,1.0,6.0,36,0.00,,,0.00,271,weatherlink.com 1.10,2013-05-14 22:33:00,
2013-05-14 18:48:00,74.7,47.0,30.09,East,100,0.0,7.0,37,0.00,,,0.00,221,weatherlink.com 1.10,2013-05-14 22:48:00,
2013-05-14 19:03:00,74.0,46.0,30.09,ENE,62,0.0,7.0,37,0.00,,,0.00,169,weatherlink.com 1.10,2013-05-14 23:03:00,
2013-05-14 19:18:00,73.5,46.0,30.09,East,98,1.0,5.0,38,0.00,,,0.00,123,weatherlink.com 1.10,2013-05-14 23:18:00,
2013-05-14 19:33:00,73.0,47.0,30.09,ESE,119,0.0,3.0,39,0.00,,,0.00,44,weatherlink.com 1.10,2013-05-14 23:33:00,
2013-05-14 19:48:00,72.1,48.0,30.09,ESE,109,0.0,4.0,42,0.00,,,0.00,18,weatherlink.com 1.10,2013-05-14 23:48:00,
2013-05-14 20:03:00,71.1,48.0,30.09,ESE,105,0.0,5.0,44,0.00,,,0.00,7,weatherlink.com 1.10,2013-05-15 00:03:00,
2013-05-14 20:18:00,70.3,49.0,30.09,ESE,105,0.0,1.0,47,0.00,,,0.00,0,weatherlink.com 1.10,2013-05-15 00:18:00,
2013-05-14 20:33:00,69.6,50.0,30.10,ESE,105,0.0,1.0,50,0.00,,,0.00,0,weatherlink.com 1.10,2013-05-15 00:33:00,
2013-05-14 20:48:00,68.8,51.0,30.10,ESE,105,0.0,1.0,53,0.00,,,0.00,0,weatherlink.com 1.10,2013-05-15 00:48:00,
2013-05-14 21:03:00,68.1,51.0,30.10,ESE,105,0.0,0.0,55,0.00,,,0.00,0,weatherlink.com 1.10,2013-05-15 01:03:00,
2013-05-14 21:18:00,67.3,51.0,30.10,ESE,105,0.0,1.0,57,0.00,,,0.00,0,weatherlink.com 1.10,2013-05-15 01:18:00,
2013-05-14 21:33:00,66.8,51.0,30.11,ESE,105,0.0,1.0,58,0.00,,,0.00,0,weatherlink.com 1.10,2013-05-15 01:33:00,
2013-05-14 21:48:00,66.0,51.0,30.12,ESE,105,0.0,0.0,58,0.00,,,0.00,0,weatherlink.com 1.10,2013-05-15 01:48:00,
2013-05-14 22:03:00,65.0,51.0,30.12,ESE,105,0.0,0.0,60,0.00,,,0.00,0,weatherlink.com 1.10,2013-05-15 02:03:00,
2013-05-14 22:18:00,64.0,51.0,30.12,ESE,105,0.0,0.0,62,0.00,,,0.00,0,weatherlink.com 1.10,2013-05-15 02:18:00,
2013-05-14 22:33:00,63.4,51.0,30.13,ESE,105,0.0,0.0,64,0.00,,,0.00,0,weatherlink.com 1.10,2013-05-15 02:33:00,
2013-05-14 22:48:00,62.7,51.0,30.13,ESE,105,0.0,0.0,65,0.00,,,0.00,0,weatherlink.com 1.10,2013-05-15 02:48:00,
2013-05-14 23:03:00,62.1,51.0,30.13,ESE,105,0.0,0.0,66,0.00,,,0.00,0,weatherlink.com 1.10,2013-05-15 03:03:00,
2013-05-14 23:18:00,61.5,50.0,30.13,ESE,105,0.0,0.0,67,0.00,,,0.00,0,weatherlink.com 1.10,2013-05-15 03:18:00,
2013-05-14 23:33:00,60.9,51.0,30.14,ESE,105,0.0,0.0,69,0.00,,,0.00,0,weatherlink.com 1.10,2013-05-15 03:33:00,
2013-05-14 23:48:00,60.2,50.0,30.14,ESE,105,0.0,0.0,70,0.00,,,0.00,0,weatherlink.com 1.10,2013-05-15 03:48:00,